Date,TemperatureHighF,TemperatureAvgF,TemperatureLowF,DewpointHighF,DewpointAvgF,DewpointLowF,HumidityHigh,HumidityAvg,HumidityLow,PressureMaxIn,PressureMinIn,WindSpeedMaxMPH,WindSpeedAvgMPH,GustSpeedMaxMPH,PrecipitationSumIn
2013-1-1,26.2,0.1,-8.1,5.5,-13.9,-22.5,60,51,38,29.91,29.78,9,1,9,0.00
2013-1-2,14.4,1.9,-7.6,-2.2,-12.2,-22.9,59,51,38,29.97,29.88,13,2,13,0.00
2013-1-3,34.9,-1.0,-12.1,2.3,-17.4,-26.3,61,46,22,30.04,29.96,9,2,9,0.00
2013-1-4,52.2,10.4,-1.5,19.0,-5.0,-14.8,64,51,22,30.03,29.93,11,2,11,0.00
2013-1-5,40.6,9.3,-1.5,4.6,-9.7,-14.6,57,44,19,30.14,29.96,20,3,20,0.01
2013-1-6,51.3,17.3,1.9,11.1,-5.4,-16.6,47,37,18,30.12,29.95,10,2,10,0.00
2013-1-7,54.7,16.5,6.4,11.7,-6.2,-13.0,50,37,17,29.97,29.88,11,2,11,0.00
2013-1-8,41.7,14.9,6.3,18.7,-1.2,-13.0,62,49,33,30.15,29.85,14,3,14,0.00
2013-1-9,52.7,18.7,5.7,17.2,1.8,-4.5,66,50,19,30.19,30.02,10,2,10,0.00
2013-1-10,41.4,24.3,14.0,8.6,0.8,-3.8,53,37,18,30.02,29.59,10,3,10,0.00
2013-1-11,17.2,8.6,-4.2,7.5,-7.2,-23.6,70,49,21,29.61,29.40,17,4,17,0.00
2013-1-12,17.2,-6.9,-16.4,-14.6,-25.6,-32.3,51,40,21,29.63,29.56,60,2,60,0.00
2013-1-13,4.1,-8.8,-17.3,-20.6,-28.1,-34.1,49,38,20,29.66,29.59,10,2,14,0.00
2013-1-14,12.2,-10.4,-20.7,-14.6,-28.3,-37.5,49,40,22,29.73,29.62,12,2,12,0.00
2013-1-15,5.5,-6.4,-21.6,-8.0,-21.3,-38.4,62,47,40,30.01,29.72,15,4,15,0.00
2013-1-16,44.2,11.9,-0.4,21.6,0.4,-11.9,71,60,39,30.19,30.01,11,2,11,0.00
2013-1-17,56.5,14.8,3.7,21.4,-0.7,-6.0,72,53,18,30.22,30.15,11,2,11,0.00
2013-1-18,51.4,16.8,4.1,10.9,-5.5,-10.1,58,39,18,30.17,30.07,17,3,17,0.01
2013-1-19,54.0,19.0,8.6,11.5,-5.1,-11.6,48,35,17,30.19,30.06,21,3,21,0.00
2013-1-20,55.2,19.9,8.8,11.1,-5.8,-10.8,45,32,17,30.13,30.06,17,3,17,0.00
2013-1-21,50.4,18.8,6.3,10.8,-6.2,-14.8,52,34,18,30.12,30.06,21,4,21,0.00
2013-1-22,57.2,22.5,11.1,14.5,-7.1,-17.7,41,27,17,30.23,30.08,19,4,58,0.00
2013-1-23,61.9,25.9,12.6,15.4,0.7,-8.3,43,35,16,30.24,30.18,11,2,11,0.00
2013-1-24,49.3,29.4,20.8,21.7,9.2,-8.1,73,45,21,30.18,30.07,33,5,33,0.02
2013-1-25,39.0,29.1,22.5,27.3,21.5,16.0,83,73,54,30.16,30.06,11,2,11,0.01
2013-1-26,45.9,28.1,16.5,26.2,19.2,9.1,84,70,40,30.07,29.81,11,2,11,0.00
2013-1-27,50.2,25.7,16.9,22.8,13.7,1.9,83,63,25,29.85,29.78,16,2,16,0.09
2013-1-28,35.8,21.5,6.6,16.7,7.0,-5.1,71,54,34,29.78,29.61,22,3,22,0.00
2013-1-29,22.1,3.9,-4.5,0.0,-10.3,-17.0,61,52,24,29.70,29.54,16,4,16,0.00
2013-1-30,14.5,7.2,-3.3,3.9,-4.3,-15.7,69,59,48,29.85,29.67,24,6,24,0.01
2013-1-31,33.6,16.1,8.1,11.5,3.3,-3.5,70,57,32,30.04,29.83,17,4,17,0.00
2013-2-1,28.4,18.0,8.1,11.3,4.3,-1.7,72,55,40,30.09,29.94,27,4,27,0.01
2013-2-2,45.7,17.0,3.2,9.9,-2.0,-6.9,64,46,18,30.17,30.08,12,3,13,0.04
2013-2-3,42.8,18.8,8.1,4.3,-4.6,-9.6,52,37,18,30.13,29.91,16,3,16,0.00
2013-2-4,48.2,17.9,3.6,10.9,-4.4,-11.2,51,39,18,29.96,29.88,17,4,17,0.00
2013-2-5,48.9,23.0,8.4,19.9,7.6,-4.9,65,53,25,30.01,29.91,19,2,19,0.00
2013-2-6,36.0,21.8,13.1,16.5,9.7,4.1,74,61,32,29.96,29.85,12,3,12,0.00
2013-2-7,48.7,16.0,3.4,22.8,1.3,-7.1,72,55,20,30.02,29.94,9,2,10,0.06
2013-2-8,42.4,21.5,9.0,14.0,3.2,-8.1,74,47,21,29.95,29.70,15,4,15,0.01
2013-2-9,23.0,16.7,5.5,14.2,6.4,-6.0,75,64,53,29.71,29.51,15,3,15,0.00
2013-2-10,23.0,9.8,4.3,2.8,-4.6,-8.9,63,52,26,29.75,29.56,17,3,17,0.00
2013-2-11,25.5,7.3,-1.1,2.5,-6.9,-15.0,60,52,26,29.81,29.70,10,2,10,0.00
2013-2-12,25.0,2.0,-10.1,3.9,-13.8,-24.9,58,47,32,29.91,29.81,17,2,17,0.00
2013-2-13,25.7,12.6,0.1,11.8,0.1,-13.2,67,57,41,29.94,29.86,23,3,23,0.00
2013-2-14,26.8,13.4,7.0,11.7,2.3,-4.0,70,61,41,29.97,29.88,17,3,17,0.00
2013-2-15,21.7,11.8,7.3,4.8,-0.8,-4.0,64,57,41,30.10,29.94,19,4,19,0.01
2013-2-16,37.4,16.8,5.5,12.6,0.5,-8.0,65,50,25,30.10,29.97,23,4,23,0.02
2013-2-17,40.3,21.5,6.1,35.8,-4.1,-15.7,97,35,18,29.97,29.68,22,4,22,0.01
2013-2-18,22.6,8.1,-3.6,0.3,-8.8,-18.6,62,47,25,29.91,29.71,16,4,16,0.00
2013-2-19,40.1,15.1,-4.4,3.4,-9.2,-18.8,50,35,18,29.90,29.69,12,3,12,0.01
2013-2-20,31.5,19.2,10.4,10.8,2.4,-6.0,67,49,24,29.70,29.53,12,2,12,0.00
2013-2-21,26.2,15.5,7.0,10.9,4.4,-4.4,66,61,51,29.72,29.53,13,3,13,0.00
2013-2-22,24.8,9.2,0.0,6.3,-4.0,-13.9,60,54,44,29.78,29.71,23,2,23,0.00
2013-2-23,32.5,13.8,-2.2,14.0,1.6,-15.2,68,58,42,29.76,29.60,21,2,23,0.00
2013-2-24,20.7,11.9,5.9,4.6,-0.5,-5.6,66,57,44,29.84,29.58,13,3,13,0.00
2013-2-25,33.8,10.8,1.8,11.3,-3.2,-10.7,61,53,35,29.87,29.75,15,4,15,0.00
2013-2-26,17.6,8.4,1.6,2.5,-3.7,-9.8,61,57,47,29.88,29.67,17,4,17,0.01
2013-2-27,26.4,4.9,-7.1,4.6,-11.6,-20.0,62,47,27,30.00,29.88,15,3,15,0.00
2013-2-28,24.8,7.9,-7.1,2.7,-7.1,-20.7,65,51,25,30.05,29.99,21,4,21,0.00
2013-3-1,33.1,19.8,12.4,16.5,8.4,1.8,72,61,46,30.22,30.04,18,6,18,0.00
2013-3-2,49.8,27.0,17.6,25.2,13.2,8.8,74,58,29,30.23,30.07,21,4,21,0.11
2013-3-3,42.6,30.2,20.1,18.1,12.4,5.4,74,49,29,30.08,29.79,25,5,25,0.00
2013-3-4,33.1,18.1,-4.5,20.7,8.0,-17.3,77,64,47,29.99,29.73,18,3,18,0.01
2013-3-5,48.6,14.2,-7.2,10.9,-5.0,-19.8,69,45,18,30.06,29.97,14,3,14,0.06
2013-3-6,51.8,27.0,11.8,12.2,3.0,-1.7,58,38,18,30.04,29.91,17,4,17,0.01
2013-3-7,50.4,30.9,19.8,30.6,3.6,-4.9,71,33,18,30.00,29.92,22,4,22,0.00
2013-3-8,42.8,27.5,17.8,18.1,11.7,3.2,73,52,27,29.98,29.69,17,3,17,0.01
2013-3-9,30.7,21.1,9.0,20.1,12.2,-1.7,75,68,61,29.88,29.65,21,4,21,0.00
2013-3-10,37.2,14.4,4.6,12.9,1.5,-5.4,66,57,32,30.03,29.87,23,6,23,0.02
2013-3-11,35.2,20.2,7.3,16.7,7.2,-3.3,70,57,41,30.02,29.94,24,4,24,0.00
2013-3-12,45.7,26.0,18.3,20.5,11.9,9.0,73,56,30,30.15,29.98,24,6,24,0.05
2013-3-13,51.1,30.8,23.0,20.5,13.4,9.3,62,49,28,30.25,30.13,30,5,30,0.00
2013-3-14,53.2,31.7,20.1,17.8,10.1,3.7,64,44,18,30.27,30.21,16,4,16,0.00
2013-3-15,54.1,35.0,23.4,18.9,13.0,7.9,61,43,18,30.22,30.03,20,4,20,0.00
2013-3-16,38.7,29.0,21.2,26.1,19.6,13.1,80,68,52,30.03,29.88,14,2,14,0.05
2013-3-17,35.4,22.5,15.3,21.9,12.2,-1.1,79,65,41,29.89,29.67,19,3,19,0.00
2013-3-18,26.8,18.2,11.3,8.6,4.8,0.5,65,56,39,29.89,29.77,15,3,15,0.00
2013-3-19,38.7,20.9,6.1,36.3,-5.3,-15.5,97,33,18,30.11,29.88,21,5,21,0.01
2013-3-20,43.2,22.2,4.5,16.7,2.9,-14.1,69,44,22,30.09,29.86,27,5,27,0.02
2013-3-21,34.5,22.2,12.7,23.5,12.7,3.6,76,67,54,29.86,29.69,15,3,15,0.00
2013-3-22,37.4,17.6,1.4,7.5,0.0,-8.9,69,49,19,29.78,29.63,15,3,15,0.02
2013-3-23,20.5,10.2,3.6,2.7,-3.1,-8.7,65,55,34,29.83,29.62,12,2,12,0.00
2013-3-24,16.7,3.2,-7.6,-3.5,-11.8,-21.3,56,49,32,29.86,29.77,17,2,17,0.00
2013-3-25,39.2,7.3,-9.2,7.3,-11.5,-24.0,58,43,20,29.97,29.85,18,3,18,0.00
2013-3-26,48.2,21.1,-0.4,18.5,4.9,-14.3,73,51,22,29.96,29.90,21,3,21,0.04
2013-3-27,50.5,28.7,19.2,21.4,14.5,9.0,76,58,25,30.06,29.93,15,2,15,0.07
2013-3-28,51.8,29.3,15.8,21.4,12.8,5.2,65,52,22,30.12,30.03,10,2,10,0.01
2013-3-29,51.1,30.9,19.6,26.4,17.9,10.4,76,60,27,30.15,30.09,23,3,23,0.00
2013-3-30,50.7,31.6,21.0,22.6,19.0,12.7,80,63,24,30.15,30.07,19,4,19,0.05
2013-3-31,53.4,29.1,11.7,19.2,9.5,3.7,76,50,18,30.12,30.04,16,4,16,0.05
2013-4-1,52.7,32.4,22.1,25.7,16.7,9.0,79,53,23,30.07,29.94,14,3,14,0.00
2013-4-2,43.2,28.3,22.3,28.4,19.0,14.7,78,69,41,29.99,29.91,16,2,16,0.02
2013-4-3,51.8,29.4,15.1,28.8,17.7,7.0,78,63,33,30.14,29.98,17,2,17,0.24
2013-4-4,54.9,32.5,19.0,25.5,16.2,10.4,77,55,21,30.14,30.09,16,3,27,0.00
2013-4-5,51.8,35.0,25.2,25.0,16.9,11.7,83,51,21,30.10,29.91,26,4,26,0.00
2013-4-6,51.8,32.4,21.6,27.0,19.2,11.3,81,62,23,29.98,29.94,15,3,15,0.11
2013-4-7,44.1,30.3,23.5,25.0,17.8,11.3,75,60,35,29.95,29.83,21,3,21,0.00
2013-4-8,50.7,32.5,21.7,25.9,18.5,10.6,82,60,23,29.85,29.61,27,3,27,0.09
2013-4-9,30.2,20.6,7.3,22.8,9.7,-4.9,78,63,45,29.78,29.61,17,3,17,0.06
2013-4-10,35.6,15.8,4.5,12.6,0.5,-6.5,61,51,35,29.86,29.77,19,5,19,0.02
2013-4-11,40.3,25.4,9.5,23.0,13.2,-5.4,76,60,39,29.88,29.75,25,7,25,0.01
2013-4-12,49.8,27.5,18.9,26.8,14.4,4.8,79,60,25,29.95,29.84,15,2,15,0.08
2013-4-13,49.5,31.4,16.2,24.1,10.0,2.1,81,43,21,29.94,29.63,36,5,36,0.11
2013-4-14,32.0,22.6,17.4,23.4,10.3,-1.7,82,61,30,29.74,29.62,23,4,23,0.02
2013-4-15,38.7,24.7,17.2,27.9,16.4,9.9,78,71,58,29.78,29.61,17,4,17,0.00
2013-4-16,41.2,26.6,14.7,26.6,16.4,7.9,77,66,51,29.78,29.68,20,5,20,0.13
2013-4-17,29.3,19.1,6.6,19.6,9.9,-4.5,74,67,59,29.82,29.67,17,4,17,0.00
2013-4-18,21.9,8.4,-0.8,5.0,-5.7,-13.0,61,52,38,30.00,29.79,20,5,20,0.00
2013-4-19,44.8,21.3,1.6,16.9,5.3,-10.8,63,51,27,30.00,29.93,25,5,25,0.14
2013-4-20,45.9,27.4,19.2,23.9,15.8,9.0,73,62,31,30.01,29.89,13,3,13,0.01
2013-4-21,51.4,30.7,20.1,22.6,16.2,8.8,76,58,23,30.05,30.00,16,3,16,0.07
2013-4-22,47.5,30.6,18.0,27.5,18.8,8.4,76,62,38,30.00,29.89,12,1,12,0.13
2013-4-23,29.7,17.6,3.0,14.5,5.5,-8.7,67,59,48,30.00,29.84,0,0,0,0.00
2013-4-24,45.9,19.6,1.2,12.7,2.4,-11.2,65,49,21,30.12,29.96,0,0,0,0.00
2013-4-25,54.0,30.1,9.5,18.9,9.1,-2.7,65,45,19,30.09,29.99,15,2,15,0.04
2013-4-26,59.4,33.8,17.4,18.7,11.7,5.7,65,44,17,30.23,30.05,15,3,15,0.18
2013-4-27,60.1,35.9,19.9,19.8,13.0,6.8,65,43,18,30.22,30.15,19,4,19,0.01
2013-4-28,61.2,39.1,23.9,23.7,16.8,11.3,67,45,18,30.17,30.06,17,4,17,0.00
2013-4-29,61.5,42.8,27.0,25.7,18.2,11.1,78,42,17,30.09,29.91,24,5,24,0.00
2013-4-30,57.4,45.2,33.4,27.5,19.8,12.4,74,38,20,29.93,29.87,28,5,28,0.19
2013-5-1,39.9,25.8,15.8,27.9,18.4,7.7,84,73,54,30.19,29.90,15,2,15,0.05
2013-5-2,43.5,22.8,10.2,17.4,8.5,1.0,73,56,25,30.28,30.19,19,2,19,0.11
2013-5-3,57.7,30.5,8.8,21.9,11.1,-0.2,73,50,18,30.24,30.06,33,2,33,0.00
2013-5-4,52.3,33.2,21.9,28.2,19.5,12.0,84,59,27,30.12,30.02,13,3,13,0.01
2013-5-5,50.4,35.5,23.4,28.0,22.9,16.7,81,62,37,30.12,30.05,15,3,15,0.06
2013-5-6,53.2,34.9,27.1,32.0,26.1,19.0,91,71,33,30.09,30.00,12,2,33,0.05
2013-5-7,53.6,37.5,29.5,33.3,26.7,17.1,92,69,27,30.06,30.00,11,2,11,0.22
2013-5-8,49.1,33.5,26.4,35.2,26.3,21.2,88,75,52,30.06,29.99,11,1,11,0.13
2013-5-9,49.5,34.1,23.9,31.1,26.5,18.7,90,75,44,30.16,30.02,13,1,13,0.28
2013-5-10,58.5,33.9,19.9,32.4,23.6,15.3,83,68,28,30.28,30.12,13,2,13,0.04
2013-5-11,58.8,36.8,23.9,29.3,22.2,12.9,83,60,21,30.30,30.25,17,3,17,0.01
2013-5-12,58.5,40.8,28.2,32.4,25.4,18.9,88,59,25,30.29,30.25,16,3,16,0.05
2013-5-13,67.5,45.2,32.4,34.0,27.8,19.9,80,57,19,30.31,30.25,11,3,11,0.01
2013-5-14,70.0,43.5,32.9,34.2,29.9,19.9,86,64,17,30.25,30.16,14,2,14,0.02
2013-5-15,58.5,40.6,32.5,37.4,32.4,28.9,91,75,40,30.17,30.09,11,2,11,0.06
2013-5-16,63.9,43.0,29.1,34.3,27.7,20.8,95,62,22,30.10,30.04,12,2,12,0.01
2013-5-17,65.3,45.1,32.5,27.7,21.4,12.4,76,46,14,30.11,30.05,12,3,12,0.00
2013-5-18,57.2,38.9,30.4,28.9,23.4,14.2,89,58,22,30.09,30.00,17,3,17,0.00
2013-5-19,48.4,34.8,28.9,32.0,26.2,19.4,91,72,43,30.02,29.96,15,3,15,0.12
2013-5-20,50.4,35.1,27.0,36.0,26.5,22.3,87,72,46,30.08,29.96,15,4,15,0.06
2013-5-21,53.8,36.2,27.3,29.7,23.7,19.0,78,62,29,30.07,30.02,15,3,15,0.00
2013-5-22,63.9,42.4,27.7,31.8,24.4,13.6,80,56,17,30.12,30.01,13,2,13,0.00
2013-5-23,65.5,46.3,34.5,34.9,28.1,13.5,82,55,19,30.12,30.07,15,4,15,0.00
2013-5-24,66.9,47.0,31.3,33.4,22.8,12.7,85,48,13,30.20,30.09,17,3,17,0.00
2013-5-25,68.0,47.6,30.7,27.1,19.6,10.8,70,40,12,30.20,30.14,29,3,29,0.00
2013-5-26,70.5,47.8,32.9,30.2,21.3,12.9,66,42,11,30.18,30.10,13,2,29,0.00
2013-5-27,65.8,46.7,32.9,25.2,18.3,12.2,61,36,15,30.14,30.04,14,3,14,0.00
2013-5-28,62.2,44.6,31.1,27.5,20.2,11.1,65,43,17,30.06,29.90,17,3,17,0.00
2013-5-29,52.7,37.6,30.2,32.9,25.5,18.5,83,63,30,29.92,29.83,15,3,15,0.05
2013-5-30,46.6,35.3,28.4,32.4,25.5,18.9,88,70,40,29.96,29.87,21,3,21,0.14
2013-6-11,77.9,77.7,77.4,62.0,61.2,61.0,58,58,57,0.00,0.00,0,0,0,0.00
2013-6-12,78.2,77.4,76.3,63.0,61.2,60.0,60,58,54,29.77,0.00,0,0,0,0.00
2013-6-13,78.3,77.7,77.0,63.0,61.7,60.0,60,58,55,29.75,29.59,0,0,0,0.01
2013-6-14,78.0,77.6,77.1,63.0,62.1,61.0,61,59,57,29.68,29.57,0,0,0,0.00
2013-6-15,77.8,77.6,77.3,63.0,62.5,61.0,61,60,57,29.70,29.59,0,0,0,0.00
2013-6-16,77.9,77.5,77.2,63.0,62.4,61.0,62,60,56,29.71,29.58,0,0,0,0.00
2013-6-17,77.9,77.4,76.7,64.0,62.1,61.0,63,60,56,29.74,29.56,0,0,0,0.00
2013-6-18,77.8,77.3,76.7,64.0,62.3,60.0,63,61,56,29.66,29.57,0,0,0,0.00
2013-6-19,77.8,77.1,76.6,64.0,62.4,60.0,64,61,56,29.71,29.62,0,0,0,0.00
2013-6-20,77.9,77.4,76.1,64.0,61.8,59.0,63,59,54,29.76,29.66,0,0,0,0.00
2013-6-21,78.0,77.5,76.6,63.0,61.9,60.0,62,59,55,29.79,29.69,0,0,0,0.00
2013-6-22,77.9,77.6,77.2,63.0,61.9,61.0,61,59,56,29.76,29.62,0,0,0,0.00
2013-6-23,77.9,77.5,77.1,64.0,62.3,61.0,62,60,56,29.72,29.61,0,0,0,0.00
2013-6-24,77.8,77.3,76.4,64.0,62.0,60.0,62,59,54,29.75,29.62,0,0,0,0.00
2013-6-29,76.2,68.7,53.6,46.9,40.3,-99.9,76,40,32,30.43,29.42,4,-31,4,0.00
2013-6-30,75.3,72.6,70.2,46.0,41.4,37.0,37,32,29,29.58,29.45,0,0,2,0.06
2013-7-1,71.4,63.3,44.4,43.0,37.4,29.0,85,41,25,29.86,29.55,9,1,15,0.07
2013-7-2,67.2,50.8,36.1,41.0,35.9,26.0,93,63,21,30.00,29.85,8,1,16,0.00
2013-7-3,69.1,50.2,35.2,39.0,34.5,26.0,90,61,21,29.94,29.77,9,1,19,0.00
2013-7-4,71.4,51.7,37.2,51.0,38.2,31.0,91,67,25,29.89,29.75,6,0,9,0.12
2013-7-5,66.2,53.9,43.5,49.0,43.0,39.0,90,69,43,29.78,29.64,4,0,9,0.01
2013-7-6,68.7,54.4,43.7,46.0,43.2,40.0,95,70,39,29.77,29.67,6,1,14,0.01
2013-7-7,72.7,54.6,42.3,49.0,42.4,36.0,93,69,29,29.85,29.72,5,0,11,0.05
2013-7-8,70.4,51.7,39.7,48.0,41.1,32.0,99,73,25,29.97,29.85,4,0,9,0.17
2013-7-9,72.3,54.9,41.1,48.0,38.3,32.0,86,59,24,30.03,29.94,6,1,13,0.00
2013-7-10,74.7,58.4,47.0,49.0,41.1,36.0,76,56,24,30.02,29.79,5,0,10,0.01
2013-7-11,76.2,59.7,46.2,43.0,38.3,28.0,77,51,20,29.83,29.61,3,0,6,0.00
2013-7-12,69.8,53.2,45.2,52.0,45.1,39.0,97,76,36,29.85,29.65,2,0,8,0.28
2013-7-13,69.9,53.2,44.3,54.0,47.7,43.0,99,84,38,29.93,29.83,4,0,8,0.13
2013-7-14,70.3,51.1,41.6,53.0,46.6,41.0,99,86,42,29.98,29.88,4,0,9,0.19
2013-7-15,68.0,51.4,43.4,51.0,46.7,42.0,97,85,48,29.97,29.80,5,0,7,0.03
2013-7-16,70.0,52.5,35.8,47.0,40.4,33.0,97,68,33,30.00,29.86,5,1,10,0.00
2013-7-17,70.2,53.2,39.7,50.0,43.6,37.0,94,72,43,30.00,29.89,6,0,12,0.00
2013-7-18,69.5,53.1,41.5,47.0,42.9,40.0,95,71,36,30.00,29.87,6,0,10,0.00
2013-7-19,68.3,53.3,44.7,53.0,44.8,40.0,92,75,42,29.96,29.82,3,0,8,0.00
2013-7-20,72.3,55.1,40.9,44.0,36.5,25.0,91,58,18,29.89,29.73,14,1,14,0.00
2013-7-21,73.1,57.7,40.1,44.0,30.2,17.0,82,43,13,29.76,29.70,6,1,13,0.00
2013-7-22,74.8,58.4,43.3,37.0,25.6,13.0,67,35,11,29.81,29.73,4,1,15,0.00
2013-7-23,75.3,58.4,42.6,35.0,23.6,11.0,50,30,12,29.88,29.78,6,1,15,0.00
2013-7-24,67.1,55.1,46.1,48.0,39.9,32.0,88,59,27,29.87,29.75,4,0,9,0.09
2013-7-25,66.0,50.2,39.4,47.0,42.6,37.0,98,78,37,30.07,29.80,5,1,12,0.24
2013-7-26,68.0,50.9,38.0,47.0,38.3,30.0,99,70,26,30.13,30.02,11,0,13,0.01
2013-7-27,69.4,52.9,40.7,44.0,39.4,34.0,94,66,31,30.02,29.72,5,1,10,0.02
2013-7-28,57.0,47.8,43.2,49.0,45.3,42.0,98,91,69,29.85,29.66,3,0,11,0.28
2013-7-29,58.2,47.0,41.1,49.0,43.6,40.0,98,88,69,30.06,29.82,5,0,12,0.14
2013-7-30,64.3,49.1,36.0,43.0,38.7,35.0,97,72,35,30.17,30.06,9,0,12,0.00
2013-7-31,69.4,53.0,38.9,41.0,37.6,32.0,90,61,26,30.19,30.00,4,0,7,0.00
2013-8-1,63.0,50.8,42.6,53.0,42.0,35.0,91,73,39,30.00,29.82,3,0,8,0.18
2013-8-2,69.1,53.9,41.7,45.0,40.7,35.0,92,65,28,29.92,29.84,5,1,13,0.00
2013-8-3,70.5,53.8,43.5,44.0,40.9,35.0,89,66,29,29.97,29.80,5,1,13,0.00
2013-8-4,70.6,51.6,39.7,46.0,40.9,34.0,95,72,28,30.00,29.91,6,1,11,0.07
2013-8-5,66.5,49.1,38.8,50.0,43.3,38.0,99,83,43,29.99,29.89,4,0,11,0.21
2013-8-6,67.0,47.8,38.6,47.0,40.8,35.0,99,80,34,29.98,29.89,5,0,10,0.02
2013-8-7,57.2,45.3,39.2,46.0,41.1,37.0,96,86,54,29.99,29.90,2,0,7,0.38
2013-8-8,54.7,43.9,36.2,44.0,38.3,35.0,97,82,53,30.07,29.94,5,0,17,0.04
2013-8-9,91.4,63.5,38.1,65.8,48.1,7.0,94,62,40,30.15,30.02,3,-162,9,0.12
2013-8-10,66.2,48.3,34.2,40.0,33.8,26.0,96,64,23,30.18,30.05,4,1,13,0.00
2013-8-11,64.9,49.0,35.7,44.0,37.0,30.0,93,68,28,30.07,29.92,7,0,10,0.00
2013-8-12,63.4,48.2,37.6,44.0,36.9,30.0,95,69,31,30.03,29.93,6,0,15,0.03
2013-8-13,61.9,45.3,34.8,45.0,38.2,33.0,98,79,34,30.17,30.02,4,1,11,0.09
2013-8-14,62.3,46.0,33.8,40.0,32.8,26.0,98,66,28,30.19,30.08,9,1,15,0.01
2013-8-15,68.2,51.0,35.8,32.0,29.0,23.0,81,49,20,30.11,29.99,8,1,13,0.00
2013-8-16,70.0,53.6,38.8,35.0,28.4,21.0,71,43,16,30.05,29.96,9,1,12,0.00
2013-8-17,70.4,55.6,43.0,36.0,30.0,21.0,65,43,17,30.01,29.85,6,1,14,0.00
2013-8-18,72.2,50.1,40.3,49.0,39.4,33.0,97,71,24,30.04,29.85,7,1,10,0.20
2013-8-19,72.2,52.6,38.0,46.0,39.1,32.0,99,67,25,30.09,29.94,4,1,10,0.01
2013-8-20,72.1,54.1,41.6,42.0,37.6,31.0,85,58,23,29.96,29.81,4,0,8,0.00
2013-8-21,70.7,52.3,41.2,49.0,41.3,37.0,91,70,30,29.96,29.85,5,1,10,0.08
2013-8-22,65.9,51.3,43.5,53.0,45.1,40.0,97,81,48,30.00,29.87,5,0,8,0.42
2013-8-23,67.8,51.9,40.1,52.0,43.7,36.0,99,78,34,29.97,29.79,4,0,8,0.04
2013-8-24,63.9,49.0,38.8,50.0,42.4,38.0,97,81,43,29.99,29.86,4,0,7,0.08
2013-8-25,61.7,49.8,40.4,53.0,45.9,40.0,98,87,58,30.03,29.95,3,0,8,0.16
2013-8-26,65.0,51.2,42.9,55.0,46.8,42.0,98,87,49,30.04,29.93,4,0,8,0.25
2013-8-27,70.6,52.5,41.3,52.0,45.5,36.0,99,81,30,30.03,29.90,3,0,8,0.01
2013-8-28,73.7,53.7,42.0,48.0,43.5,34.0,97,74,25,30.02,29.85,9,0,12,0.16
2013-8-29,69.6,51.3,41.1,51.0,44.6,39.0,99,82,35,30.11,29.97,5,0,8,0.31
2013-8-30,61.2,50.2,44.5,53.0,48.2,44.0,99,93,65,30.10,29.98,2,0,3,0.56
2013-8-31,65.3,50.0,42.2,52.0,46.6,42.0,99,90,49,30.03,29.92,3,0,6,0.08
2013-9-1,64.8,50.7,43.9,52.0,46.2,43.0,98,86,46,29.98,29.89,4,0,8,0.16
2013-9-2,69.0,53.7,44.9,51.0,46.0,41.0,98,79,38,29.98,29.86,4,0,8,0.08
2013-9-3,69.7,52.7,41.9,52.0,45.0,38.0,99,79,33,30.02,29.89,4,0,10,0.07
2013-9-4,65.8,52.4,43.3,52.0,46.3,42.0,97,82,46,30.07,29.97,3,0,8,0.02
2013-9-5,72.3,56.4,45.6,49.0,43.2,31.0,93,67,23,30.05,29.94,2,0,8,0.00
2013-9-6,69.2,52.9,42.2,48.0,42.3,39.0,93,72,35,30.00,29.85,2,0,9,0.01
2013-9-7,73.2,52.1,41.2,49.0,41.8,35.0,93,73,27,29.98,29.84,2,0,8,0.05
2013-9-8,67.9,52.2,40.9,45.0,41.4,35.0,92,70,31,29.91,29.71,7,0,7,0.00
2013-9-9,68.3,49.7,39.1,48.0,43.3,38.0,97,81,38,29.78,29.64,8,0,11,0.22
2013-9-10,52.2,46.5,44.4,50.0,45.5,44.0,99,96,88,29.96,29.76,4,0,6,0.65
2013-9-11,55.8,47.3,44.1,52.0,46.2,44.0,99,96,84,30.00,29.91,2,0,6,0.60
2013-9-12,57.1,47.5,43.4,52.0,46.1,43.0,99,95,72,30.05,29.90,2,0,8,0.85
2013-9-13,55.9,46.7,40.5,48.0,44.6,40.0,99,93,71,29.92,29.71,2,0,6,0.32
2013-9-14,52.9,44.0,37.4,47.0,42.0,37.0,99,93,68,29.89,29.77,6,0,7,0.47
2013-9-15,53.9,41.8,37.5,46.0,40.6,37.0,100,95,72,30.11,29.88,4,0,9,0.39
2013-9-16,56.6,43.4,33.0,46.0,39.5,33.0,100,88,51,30.12,30.00,3,0,8,0.01
2013-9-17,61.3,45.4,33.6,44.0,36.0,30.0,99,75,32,30.06,29.80,7,1,10,0.00
2013-9-18,60.8,43.5,36.6,42.0,37.8,32.0,98,83,37,29.87,29.71,5,1,10,0.28
2013-9-19,54.2,40.5,30.2,40.0,30.9,19.0,99,74,27,30.09,29.85,7,1,13,0.05
2013-9-20,61.1,41.1,26.3,31.0,24.3,10.0,94,60,14,30.15,30.03,5,1,8,0.00
2013-9-21,61.2,44.2,32.1,35.0,30.7,26.0,86,63,30,30.06,29.78,8,1,13,0.00
2013-9-22,51.6,40.3,31.8,44.0,37.1,31.0,98,88,67,29.77,29.49,9,0,9,0.33
2013-9-23,39.2,31.9,27.7,32.0,28.6,26.0,98,88,62,30.23,29.50,10,1,15,0.06
2013-9-24,56.8,37.1,23.7,28.0,21.3,7.0,95,63,14,30.34,29.98,6,1,8,0.13
2013-9-25,60.4,45.5,30.9,27.0,21.5,15.0,77,44,17,29.98,29.49,8,2,17,0.00
2013-9-26,61.6,48.7,39.1,27.0,19.7,15.0,46,33,20,29.50,29.41,5,2,17,0.00
2013-9-27,45.2,36.1,23.6,40.0,26.6,16.0,94,70,45,29.89,29.42,6,1,11,0.07
2013-9-28,47.5,30.7,18.2,22.0,16.2,9.0,81,59,28,30.32,29.91,5,1,27,0.00
2013-9-29,53.7,38.0,25.5,20.0,15.8,9.0,75,46,17,30.31,30.01,10,1,12,0.00
2013-9-30,59.6,42.6,29.8,31.0,24.2,19.0,78,52,25,30.08,29.83,7,1,19,0.00
2013-10-1,63.2,43.1,30.3,29.0,24.0,13.0,78,54,15,29.99,29.84,4,1,10,0.00
2013-10-2,60.8,42.0,29.0,24.0,21.2,11.0,79,50,18,29.93,29.77,3,0,8,0.00
2013-10-3,56.8,42.8,31.1,24.0,20.1,14.0,75,44,19,29.79,29.49,8,1,14,0.00
2013-10-4,29.2,21.8,13.7,24.0,17.1,10.0,94,82,54,30.29,29.48,7,1,11,0.00
2013-10-5,31.9,20.4,13.6,20.0,14.4,11.0,91,78,53,30.63,30.29,6,1,15,0.00
2013-10-6,47.0,28.1,13.8,27.0,20.2,12.0,94,76,42,30.68,30.51,7,0,15,0.02
2013-10-7,59.3,37.7,23.8,25.0,17.4,4.0,87,54,11,30.50,30.05,5,1,8,0.00
2013-10-8,58.0,41.1,30.2,24.0,18.7,8.0,76,46,16,30.03,29.69,5,1,12,0.00
2013-10-9,50.7,38.3,28.4,27.0,22.6,18.0,79,57,28,29.85,29.75,10,1,14,0.00
2013-10-10,39.6,32.9,26.1,33.0,26.3,19.0,95,77,59,29.82,29.46,8,1,16,0.02
2013-10-11,36.7,29.8,24.7,26.0,22.6,19.0,88,75,59,30.10,29.60,15,1,23,0.01
2013-10-12,44.8,28.9,17.3,24.0,16.7,10.0,89,65,25,30.24,30.10,3,0,7,0.01
2013-10-13,48.3,36.5,26.8,31.0,23.6,17.0,95,62,32,30.20,29.83,8,1,11,0.00
2013-10-14,36.3,28.4,23.2,31.0,23.9,19.0,96,84,57,30.14,29.73,11,1,16,0.03
2013-10-15,28.7,23.5,20.7,25.0,21.4,19.0,95,91,82,30.22,30.13,3,0,6,0.00
2013-10-16,30.9,21.4,13.0,22.0,16.9,11.0,95,83,61,30.31,30.18,0,0,0,0.00
2013-10-17,36.0,22.2,10.1,18.0,12.5,8.0,94,70,37,30.35,30.16,5,0,14,0.00
2013-10-18,27.3,20.0,13.5,20.0,14.8,10.0,93,81,59,30.39,30.09,1,0,2,0.00
2013-10-19,38.0,25.7,13.1,20.0,15.0,10.0,91,66,43,30.45,30.20,0,0,0,0.00
2013-10-20,37.2,28.5,22.2,25.0,18.4,14.0,93,68,47,30.20,29.94,9,1,15,0.00
2013-10-21,36.8,24.8,12.8,20.0,16.9,11.0,94,75,38,30.42,30.10,4,0,12,0.00
2013-10-22,45.6,28.0,16.6,22.0,18.6,15.0,93,72,32,30.48,30.34,6,0,9,0.01
2013-10-23,49.0,31.0,21.1,22.0,18.4,12.0,89,66,23,30.36,30.24,6,1,9,0.02
2013-10-24,49.6,34.5,21.6,23.0,17.3,10.0,80,55,21,30.32,30.21,2,0,8,0.01
2013-10-25,47.4,33.3,23.6,26.0,20.8,18.0,83,64,31,30.29,30.16,4,0,10,0.00
2013-10-26,47.1,31.7,22.6,23.0,20.0,16.0,87,66,31,30.35,30.26,4,0,11,0.00
2013-10-27,43.4,30.1,20.8,22.0,17.7,11.0,87,64,27,30.29,29.98,8,1,14,0.00
2013-10-28,44.3,32.3,25.9,25.0,19.0,14.0,80,60,31,29.98,29.79,5,1,11,0.00
2013-10-29,40.4,31.7,26.9,26.0,16.1,9.0,94,55,32,29.86,29.68,6,1,15,0.00
2013-10-30,30.3,21.7,15.0,24.0,15.6,11.0,93,78,49,30.00,29.72,6,1,11,0.00
2013-10-31,26.7,20.5,16.7,19.0,15.4,13.0,92,81,64,30.19,29.99,9,1,20,0.00
2013-11-1,28.1,21.7,10.8,21.0,17.1,8.0,92,83,68,30.48,30.15,5,1,18,0.00
2013-11-2,45.7,25.9,9.1,19.0,7.7,-5.0,92,56,15,30.57,30.09,4,1,12,0.08
2013-11-3,41.4,31.1,14.9,23.0,13.6,5.0,91,51,27,30.08,29.54,7,1,14,0.01
2013-11-4,34.5,20.7,5.8,18.0,11.0,3.0,92,70,32,30.00,29.77,4,0,12,0.00
2013-11-5,21.7,12.1,2.8,18.0,7.3,-4.0,89,81,62,30.51,29.94,5,0,10,0.00
2013-11-6,25.9,15.6,-0.9,16.0,7.6,-5.0,89,72,57,30.76,30.52,8,1,17,0.00
2013-11-7,40.7,26.0,11.3,19.0,13.8,9.0,92,64,34,30.73,30.22,6,1,14,0.06
2013-11-8,41.4,33.2,22.6,18.0,13.6,6.0,73,46,31,30.21,29.84,17,2,19,0.03
2013-11-9,43.5,28.4,18.4,20.0,15.5,12.0,81,62,29,30.36,30.08,4,0,7,0.03
2013-11-10,43.8,28.5,19.2,18.0,15.6,13.0,80,62,29,30.42,30.31,4,0,15,0.01
2013-11-11,42.4,27.4,19.3,20.0,16.0,13.0,81,65,33,30.60,30.39,4,0,11,0.01
2013-11-12,44.7,27.2,18.9,17.0,13.4,3.0,84,62,18,30.71,30.59,2,0,6,0.00
2013-11-13,42.0,27.8,17.4,18.0,11.8,7.0,73,54,25,30.61,30.19,5,0,11,0.00
2013-11-14,35.8,26.6,18.6,23.0,13.1,1.0,93,61,23,30.18,29.89,4,0,10,0.00
2013-11-15,35.3,24.8,15.8,23.0,13.1,4.0,93,63,36,29.89,29.59,4,0,11,0.00
2013-11-16,30.4,23.2,17.7,21.0,15.2,10.0,92,73,47,29.63,29.46,10,1,25,0.00
2013-11-17,27.6,19.5,11.9,18.0,14.2,9.0,91,80,60,30.37,29.61,2,0,13,0.00
2013-11-18,38.6,19.0,7.7,19.0,11.0,4.0,93,76,23,30.57,30.37,3,0,6,0.00
2013-11-19,36.1,25.3,14.4,22.0,16.0,9.0,88,69,41,30.38,29.95,13,2,25,0.00
2013-11-20,35.5,26.9,23.2,22.0,19.6,15.0,92,75,45,29.95,29.84,4,0,11,0.00
2013-11-21,32.2,24.3,14.3,26.0,21.3,12.0,93,88,76,30.31,29.88,3,0,7,0.00
2013-11-22,29.7,19.8,13.3,23.0,16.3,11.0,94,86,75,30.57,30.32,3,0,8,0.00
2013-11-23,26.1,19.1,14.3,20.0,15.2,11.0,93,85,71,30.59,30.40,6,1,11,0.00
2013-11-24,25.9,22.0,16.0,23.0,20.1,14.0,95,92,85,30.39,30.06,1,0,6,0.00
2013-11-25,26.5,18.6,9.1,21.0,15.4,7.0,93,87,72,30.48,30.10,0,0,0,0.00
2013-11-26,27.4,16.6,7.8,15.0,11.8,6.0,94,83,57,30.62,30.49,0,0,0,0.00
2013-11-27,37.8,18.0,7.3,19.0,11.2,5.0,93,78,37,30.65,30.47,2,0,6,0.00
2013-11-28,38.4,22.6,14.6,19.0,13.4,10.0,88,70,32,30.47,30.29,3,0,8,0.00
2013-11-29,33.1,18.9,10.0,14.0,10.2,6.0,85,71,41,30.52,30.35,4,0,8,0.00
2013-11-30,31.5,15.8,6.6,11.0,6.5,3.0,88,70,31,30.58,30.47,4,0,10,0.00
2013-12-1,30.0,19.4,7.3,20.0,11.1,4.0,89,72,47,30.56,30.28,13,1,21,0.00
2013-12-2,31.9,26.1,22.0,21.0,18.4,15.0,90,74,53,30.28,29.75,11,1,27,0.00
2013-12-3,27.9,25.0,22.4,23.0,19.9,14.0,91,81,60,29.74,29.36,2,0,9,0.00
2013-12-4,68.5,7.2,-8.6,64.6,4.0,-12.0,92,86,81,30.08,28.94,3,0,6,0.00
2013-12-5,44.4,5.7,-15.4,35.6,0.3,-19.0,89,79,70,30.47,29.08,15,2,17,0.00
2013-12-6,5.4,-4.6,-15.5,-3.0,-10.4,-20.0,86,77,59,30.65,30.45,0,0,0,0.00
2013-12-7,15.2,6.4,-0.7,6.0,0.8,-5.0,88,78,62,30.59,29.91,0,0,0,0.00
2013-12-8,5.8,1.0,-10.7,3.0,-4.0,-15.0,88,80,60,30.28,29.85,0,0,0,0.00
2013-12-9,0.5,-7.7,-14.6,-9.0,-13.7,-19.0,87,75,53,30.98,30.27,0,0,0,0.00
2013-12-10,20.9,10.5,-3.7,9.0,3.3,-8.0,88,74,55,30.96,30.58,0,0,0,0.00
2013-12-11,25.5,9.0,-2.0,7.0,-0.6,-7.0,91,70,25,30.86,30.55,0,0,0,0.00
2013-12-12,35.7,14.6,4.0,11.0,2.9,-2.0,79,64,24,30.89,30.42,0,0,0,0.00
2013-12-13,26.9,13.9,5.9,10.0,5.7,1.0,88,72,41,30.42,30.12,5,0,13,0.00
2013-12-14,17.5,10.4,4.7,11.0,6.8,2.0,90,85,72,30.75,30.40,13,0,17,0.00
2013-12-15,31.5,21.6,13.9,15.0,11.7,9.0,85,67,40,30.73,30.54,9,1,20,0.00
2013-12-16,33.9,25.0,16.8,16.0,10.2,4.0,81,56,31,30.54,30.45,4,1,15,0.00
2013-12-17,38.1,25.2,17.7,14.0,9.2,3.0,75,53,32,30.54,30.36,5,1,14,0.00
2013-12-18,39.7,31.5,18.7,17.0,8.9,3.0,67,41,22,30.35,29.76,6,2,16,0.01
2013-12-19,34.8,28.0,14.3,22.0,12.2,8.0,79,53,36,29.75,29.52,6,1,19,0.00
2013-12-20,23.5,16.7,7.7,19.0,12.7,5.0,91,84,67,29.81,29.63,2,0,8,0.00
2013-12-21,15.7,7.2,-0.3,12.0,4.2,-4.0,91,87,80,30.18,29.76,6,0,12,0.00
2013-12-22,14.8,8.8,2.0,7.0,3.0,-1.0,89,78,62,30.50,30.19,8,1,22,0.00
2013-12-23,24.6,17.6,11.7,17.0,9.6,4.0,81,71,59,30.64,30.47,13,2,23,0.00
2013-12-24,24.3,15.4,-2.8,21.0,11.7,-6.0,92,85,74,30.56,30.18,11,1,19,0.00
2013-12-25,18.8,4.0,-5.1,12.0,0.1,-9.0,90,84,69,30.97,30.56,4,0,10,0.00
2013-12-26,27.5,12.1,2.5,17.0,7.4,0.0,91,82,57,30.95,30.75,4,0,23,0.00
2013-12-27,33.6,16.7,6.6,20.0,11.9,4.0,92,83,54,30.81,30.49,5,0,7,0.00
2013-12-28,31.7,20.1,11.7,21.0,15.1,10.0,93,82,55,30.48,30.11,3,0,7,0.00
2013-12-29,17.3,11.1,2.1,14.0,7.3,-1.0,91,85,69,30.40,30.13,0,0,1,0.00
2013-12-30,23.0,15.7,8.7,11.0,7.6,4.0,84,71,50,30.56,30.39,3,0,15,0.00
2013-12-31,29.9,22.8,8.9,19.0,14.9,5.0,87,72,57,30.46,30.12,8,1,17,0.00
2014-1-1,22.6,15.6,8.4,19.0,11.8,4.0,92,85,74,30.49,30.01,6,0,10,0.00
2014-1-2,30.2,13.0,1.9,18.0,7.7,-1.0,91,80,55,30.71,30.48,0,0,0,0.00